Regional Weather Roundup
Issued by NWS

Home | Current Version | Previous Version | Graphics & Text | Print | Product List | Glossary On
Versions: 1 2 3 4 5 6 7 8 9 10 11 12 13 14 15 16 17 18 19 20 21 22 23 24 25 26 27 28 29 30 31 32 33 34 35 36 37 38 39 40 41 42 43 44 45 46 47 48 49 50
000
ASUS43 KBIS 231331
RWRND
NORTH DAKOTA REGIONAL WEATHER ROUNDUP
NATIONAL WEATHER SERVICE EASTERN NORTH DAKOTA/GRAND FORKS ND
800 AM CDT FRI JUN 23 2017

  NOTE: "FAIR" INDICATES FEW OR NO CLOUDS BELOW 12,000 FEET WITH NO
  SIGNIFICANT WEATHER AND/OR OBSTRUCTIONS TO VISIBILITY.

NDZ001>003-009>011-017-231400-
...NORTHWEST NORTH DAKOTA...

CITY           SKY/WX    TMP DP  RH WIND       PRES   REMARKS
WILLISTON      FAIR      50  39  66 NW15      30.13R
MINOT          CLOUDY    53  41  63 W22       30.00R
MINOT AFB      CLOUDY    52  41  64 NW18G30   29.99R
$$

NDZ018>021-031>035-040>046-231400-
...SOUTHWEST NORTH DAKOTA...

CITY           SKY/WX    TMP DP  RH WIND       PRES   REMARKS
BISMARCK       CLOUDY    56  46  69 NW15G23   30.03S
DICKINSON      PTSUNNY   49  40  71 W17       30.10R
GARRISON         N/A     50  40  68 NW23G35   30.03R
HETTINGER      FAIR      51  39  63 NW23G32   30.14R
$$

NDZ004>008-012>016-024-026-027-054-231400-
...NORTHEAST NORTH DAKOTA...

CITY           SKY/WX    TMP DP  RH WIND       PRES   REMARKS
GRAND FORKS    CLOUDY    60  53  77 NW18G24   29.80R
GRAND FORKS AF LGT RAIN  57  50  77 NW20G26   29.83R
DEVILS LAKE    CLOUDY    56  47  71 NW20G26   29.89R
$$

NDZ022-023-025-028>030-036>039-047>053-231400-
...SOUTHEAST NORTH DAKOTA...

CITY           SKY/WX    TMP DP  RH WIND       PRES   REMARKS
JAMESTOWN      CLOUDY    57  46  66 NW25G35   29.91R
FARGO          CLOUDY    62  53  72 NW22G31   29.82R
WAHPETON       CLOUDY    61  50  67 NW18      29.85R
$$




USA.gov is the U.S. government's official web portal to all federal, state and local government web resources and services.